Location: Asbacherhof
(48.8543°N, 10.7903°E)
Time: 17:27:57
(UTC+00:00)

Cosmos 1455 - Pass Details

Date: 26 May 2022
Orbit: 492 x 514 km, 82.5° (Epoch: 06 July)

Event Time Altitude Azimuth Distance (km) Brightness Sun altitude
Rises 00:45:00 0° 356° (N) 2,589 6.9 -17.2°
Reaches altitude 10° 00:47:13 10° 3° (N) 1,700 5.9 -17.0°
Maximum altitude 00:50:45 41° 75° (ENE) 727 3.2 -16.8°
Enters shadow 00:53:29 15° 142° (SE) 1,387 4.1 -16.6°
